Japanese version Home page |
Updated on September 6, 2016 |
Profile
|
Orbital ElementsEpoch 2016 June 21.0 TT = JDT 2457560.5 T 2016 July 1.62984 TT MPCW q 0.0532303 (2000.0) P Q n 0.18560846 Peri. 57.11512 -0.18342757 -0.97034609 a 3.0437165 Node 44.33481 +0.80981188 -0.23993972 e 0.9825114 Incl. 13.01838 +0.55727824 +0.02928126 P 5.31 From 182 observations 2011 Mar. 9-2016 July 2. Nongravitational parameters A1 = +0.00, A2 = +0.0015.
|
The orbital elements are published on M.P.E.C. 2016-P77.
|